Flag for U.S.A. Weather past 2 weeks in McAllen, Texas, U.S.A.

Now
74 °F

Light rain. Passing clouds.


Feels Like: 76 °F
Forecast: 52 / 69 °F
Wind: No wind

Location: Miller International Airport

Current Time: Feb 1, 2015 at 8:08:16 PM

Latest Report: Feb 1, 2015 at 6:53 PM


Visibility: 10 mi

Pressure: 29.94 "Hg

Humidity: 64%

Dew point: 61 °F

Location of McAllenLocation

Historic Weather in McAllen — Graph

°F

McAllen temperature yesterday

Maximum temperature yesterday: 75 °F (at 1:53 PM)
Minimum temperature yesterday: 64 °F (at 4:53 AM)
Average temperature yesterday: 68 °F

Past Weeks' High & Low Weather Summary

 TemperatureHumidityPressure
High83 °F (Jan 20, 3:53 PM)100% (Jan 19, 8:01 AM)30.37 "Hg (Jan 19, 8:01 AM)
Low39 °F (Jan 24, 4:53 AM)22% (Jan 26, 3:53 PM)29.87 "Hg (Jan 20, 3:53 PM)
Average62 °F73%30.12 "Hg
* Reported Jan 17 6:53 PM — Feb 1 6:53 PM, McAllen, Weather by CustomWeather, © 2014

Note: Actual official high and low records may vary slightly from our data, if they occured in-between our weather recording intervals... More about our weather records

Advertising

McAllen weather history for previous 24 hours

 ConditionsComfort  
Time TempWeatherWind HumidityBarometerVisibility
6:53 PM
Feb 1
74 °FLight rain. Passing clouds.No wind64%29.94 "Hg10 mi
5:53 PM76 °FScattered clouds.3 mph58%29.90 "Hg10 mi
4:53 PM77 °FSunny.No wind56%29.88 "Hg10 mi
3:53 PM77 °FMostly cloudy.9 mph56%29.87 "Hg10 mi
2:53 PM77 °FSunny.7 mph58%29.87 "Hg10 mi
1:53 PM77 °FSunny.7 mph56%29.88 "Hg10 mi
12:53 PM77 °FSunny.6 mph58%29.90 "Hg10 mi
11:53 AM76 °FSunny.10 mph60%29.92 "Hg10 mi
10:53 AM74 °FSunny.12 mph62%29.94 "Hg10 mi
9:53 AM70 °FSunny.12 mph71%29.94 "Hg10 mi
8:53 AM66 °FSunny.7 mph78%29.93 "Hg10 mi
7:53 AM64 °FSunny.9 mph81%29.90 "Hg10 mi
6:53 AM65 °FClear.6 mph81%29.90 "Hg10 mi
5:53 AM65 °FLight rain. Passing clouds.9 mph85%29.88 "Hg10 mi
4:53 AM65 °FPassing clouds.9 mph87%29.87 "Hg10 mi
3:53 AM66 °FClear.10 mph84%29.89 "Hg10 mi
2:53 AM65 °FClear.14 mph87%29.88 "Hg10 mi
1:53 AM65 °FClear.13 mph85%29.89 "Hg10 mi
12:53 AM65 °FClear.7 mph81%29.93 "Hg10 mi
11:53 PM
Jan 31
66 °FClear.12 mph78%29.93 "Hg10 mi
10:53 PM66 °FPassing clouds.23 mph84%29.90 "Hg10 mi
9:53 PM66 °FPassing clouds.12 mph87%29.96 "Hg10 mi
8:53 PM68 °FPassing clouds.14 mph82%29.96 "Hg10 mi
Weather by CustomWeather, © 2014

See weather overviewHow to use our weather pages